PAX377 FMEE-FIMP

Flight info

Callsign PAX377
Flight time 0h 27m
Altitude 13000
Route FFLAC FFLAC1
Aircraft A20N/M-SDE2E3FGHIRWXY/LB1

Departure

Time 2026-05-04 11:47
Airport Roland Garros Airport (FMEE)

Arrival

Time 2026-05-04 12:14
Airport Sir Seewoosagur Ramgoolam International Airport (FIMP)
Time Latitude Longitude Altitude Speed Heading
2026-05-04 11:33 -20.89073 55.51237 86 ft 0 kts 208°
2026-05-04 11:37 -20.89069 55.51240 86 ft 2 kts 216°
2026-05-04 11:38 -20.89057 55.51256 85 ft 4 kts 245°
2026-05-04 11:38 -20.89055 55.51276 84 ft 3 kts 277°
2026-05-04 11:38 -20.89058 55.51294 84 ft 0 kts 281°
2026-05-04 11:38 -20.89058 55.51295 84 ft 0 kts 281°
2026-05-04 11:39 -20.89058 55.51294 84 ft 0 kts 281°
2026-05-04 11:42 -20.89057 55.51287 84 ft 3 kts 286°
2026-05-04 11:42 -20.89029 55.51249 83 ft 11 kts 319°
2026-05-04 11:42 -20.88953 55.51194 79 ft 14 kts 336°
2026-05-04 11:42 -20.88859 55.51160 73 ft 14 kts 342°
2026-05-04 11:43 -20.88761 55.51122 67 ft 17 kts 327°
2026-05-04 11:43 -20.88732 55.51091 65 ft 0 kts 296°
2026-05-04 11:44 -20.88727 55.51080 65 ft 4 kts 293°
2026-05-04 11:44 -20.88710 55.51024 65 ft 12 kts 284°
2026-05-04 11:44 -20.88688 55.50915 65 ft 19 kts 281°
2026-05-04 11:45 -20.88655 55.50754 64 ft 25 kts 282°
2026-05-04 11:45 -20.88623 55.50597 64 ft 8 kts 282°
2026-05-04 11:45 -20.88608 55.50542 63 ft 8 kts 300°
2026-05-04 11:45 -20.88575 55.50490 61 ft 8 kts 258°
2026-05-04 11:46 -20.88597 55.50482 62 ft 0 kts 101°
2026-05-04 11:46 -20.88603 55.50513 63 ft 27 kts 102°
2026-05-04 11:47 -20.88723 55.51072 65 ft 124 kts 102°
2026-05-04 11:47 -20.89111 55.52028 634 ft 135 kts 132°
2026-05-04 11:47 -20.89546 55.52849 1674 ft 136 kts 104°
2026-05-04 11:47 -20.89558 55.54094 1783 ft 204 kts 83°
2026-05-04 11:48 -20.89238 55.55737 2261 ft 253 kts 73°
2026-05-04 11:48 -20.88464 55.57654 2919 ft 305 kts 62°
2026-05-04 11:48 -20.87333 55.59719 3824 ft 322 kts 61°
2026-05-04 11:48 -20.86373 55.61648 4834 ft 263 kts 65°
2026-05-04 11:49 -20.85744 55.63259 5865 ft 219 kts 74°
2026-05-04 11:49 -20.85500 55.64746 7148 ft 197 kts 85°
2026-05-04 11:49 -20.85091 55.66187 7790 ft 210 kts 68°
2026-05-04 11:49 -20.84499 55.67652 8455 ft 218 kts 69°
2026-05-04 11:50 -20.83923 55.69160 9226 ft 221 kts 70°
2026-05-04 11:50 -20.83365 55.70695 9903 ft 227 kts 71°
2026-05-04 11:50 -20.82792 55.72316 10243 ft 237 kts 71°
2026-05-04 11:50 -20.82205 55.74003 10607 ft 248 kts 71°
2026-05-04 11:51 -20.81597 55.75755 11068 ft 254 kts 71°
2026-05-04 11:51 -20.80983 55.77529 11639 ft 257 kts 71°
2026-05-04 11:51 -20.80364 55.79315 12209 ft 259 kts 71°
2026-05-04 11:51 -20.79738 55.81125 12773 ft 262 kts 71°
2026-05-04 11:52 -20.79105 55.82952 13330 ft 264 kts 71°
2026-05-04 11:52 -20.78461 55.84813 13886 ft 267 kts 71°
2026-05-04 11:52 -20.77818 55.86669 14429 ft 269 kts 71°
2026-05-04 11:52 -20.77168 55.88542 14964 ft 272 kts 71°
2026-05-04 11:53 -20.76511 55.90437 15475 ft 276 kts 71°
2026-05-04 11:53 -20.75838 55.92410 15660 ft 295 kts 72°
2026-05-04 11:53 -20.75132 55.94572 15693 ft 320 kts 72°
2026-05-04 11:53 -20.74378 55.96901 15699 ft 348 kts 72°
2026-05-04 11:55 -20.67823 56.17060 15674 ft 428 kts 71°
2026-05-04 11:55 -20.66934 56.19786 15674 ft 428 kts 71°
2026-05-04 11:56 -20.65949 56.22805 15674 ft 428 kts 71°
2026-05-04 11:56 -20.64974 56.25791 15674 ft 428 kts 71°
2026-05-04 11:56 -20.63999 56.28778 15674 ft 428 kts 71°
2026-05-04 11:56 -20.63022 56.31764 15674 ft 428 kts 71°
2026-05-04 11:57 -20.62047 56.34745 15674 ft 428 kts 71°
2026-05-04 11:57 -20.61068 56.37737 15674 ft 428 kts 71°
2026-05-04 11:57 -20.60083 56.40744 15674 ft 428 kts 71°
2026-05-04 11:57 -20.59102 56.43735 15674 ft 428 kts 71°
2026-05-04 11:58 -20.58123 56.46720 15674 ft 428 kts 71°
2026-05-04 11:58 -20.57145 56.49701 15674 ft 428 kts 71°
2026-05-04 11:58 -20.56166 56.52681 15674 ft 428 kts 71°
2026-05-04 11:58 -20.55186 56.55664 15674 ft 428 kts 71°
2026-05-04 11:59 -20.54206 56.58646 15674 ft 428 kts 71°
2026-05-04 11:59 -20.53214 56.61660 15685 ft 428 kts 71°
2026-05-04 11:59 -20.52230 56.64649 15687 ft 428 kts 71°
2026-05-04 11:59 -20.51247 56.67631 15688 ft 428 kts 71°
2026-05-04 12:00 -20.50918 56.68628 15688 ft 428 kts 71°
2026-05-04 12:00 -20.49312 56.73497 15678 ft 407 kts 71°
2026-05-04 12:00 -20.48391 56.76287 15495 ft 396 kts 71°
2026-05-04 12:00 -20.47487 56.79025 14921 ft 391 kts 71°
2026-05-04 12:01 -20.46586 56.81755 14343 ft 387 kts 71°
2026-05-04 12:01 -20.45699 56.84436 13768 ft 382 kts 71°
2026-05-04 12:02 -20.40573 56.99907 10322 ft 359 kts 71°
2026-05-04 12:03 -20.39747 57.02397 9746 ft 354 kts 71°
2026-05-04 12:03 -20.38935 57.04840 9172 ft 348 kts 71°
2026-05-04 12:03 -20.38134 57.07252 8596 ft 343 kts 71°
2026-05-04 12:03 -20.37346 57.09623 8022 ft 339 kts 71°
2026-05-04 12:04 -20.36568 57.11961 7449 ft 334 kts 71°
2026-05-04 12:04 -20.35798 57.14276 6875 ft 330 kts 71°
2026-05-04 12:04 -20.35031 57.16578 6296 ft 327 kts 71°
2026-05-04 12:04 -20.34275 57.18846 5721 ft 323 kts 71°
2026-05-04 12:05 -20.33533 57.21074 5149 ft 320 kts 71°
2026-05-04 12:05 -20.32792 57.23296 4573 ft 317 kts 71°
2026-05-04 12:05 -20.32063 57.25481 4002 ft 314 kts 71°
2026-05-04 12:05 -20.31337 57.27656 3451 ft 311 kts 71°
2026-05-04 12:06 -20.30631 57.29769 3248 ft 295 kts 71°
2026-05-04 12:06 -20.29962 57.31769 3229 ft 272 kts 72°
2026-05-04 12:06 -20.29368 57.33541 3502 ft 236 kts 72°
2026-05-04 12:06 -20.28868 57.35032 3835 ft 195 kts 72°
2026-05-04 12:07 -20.28433 57.36333 4210 ft 185 kts 73°
2026-05-04 12:07 -20.28383 57.37667 4565 ft 184 kts 109°
2026-05-04 12:07 -20.28909 57.38903 4681 ft 183 kts 118°
2026-05-04 12:07 -20.29496 57.40100 4646 ft 184 kts 118°
2026-05-04 12:08 -20.30084 57.41314 4247 ft 184 kts 118°
2026-05-04 12:08 -20.30661 57.42522 3781 ft 184 kts 117°
2026-05-04 12:08 -20.31224 57.43712 3563 ft 177 kts 117°
2026-05-04 12:08 -20.31781 57.44892 3556 ft 179 kts 117°
2026-05-04 12:09 -20.32334 57.46067 3542 ft 173 kts 117°
2026-05-04 12:09 -20.32855 57.47177 3556 ft 167 kts 117°
2026-05-04 12:09 -20.33377 57.48287 3562 ft 168 kts 117°
2026-05-04 12:09 -20.33900 57.49403 3546 ft 168 kts 117°
2026-05-04 12:10 -20.34388 57.50530 3543 ft 168 kts 112°
2026-05-04 12:10 -20.34847 57.51673 3545 ft 168 kts 116°
2026-05-04 12:10 -20.35366 57.52787 3544 ft 168 kts 118°
2026-05-04 12:10 -20.35904 57.53885 3430 ft 167 kts 118°
2026-05-04 12:11 -20.36423 57.54938 3168 ft 156 kts 118°
2026-05-04 12:11 -20.36917 57.55940 2930 ft 148 kts 118°
2026-05-04 12:11 -20.37399 57.56919 2714 ft 150 kts 118°
2026-05-04 12:11 -20.37883 57.57902 2480 ft 149 kts 118°
2026-05-04 12:12 -20.38362 57.58874 2243 ft 149 kts 118°
2026-05-04 12:12 -20.38841 57.59847 2006 ft 148 kts 118°
2026-05-04 12:12 -20.39316 57.60812 1772 ft 148 kts 118°
2026-05-04 12:12 -20.39790 57.61775 1540 ft 147 kts 118°
2026-05-04 12:13 -20.40263 57.62736 1308 ft 147 kts 118°
2026-05-04 12:14 -20.43208 57.68742 159 ft 39 kts 117°
2026-05-04 12:15 -20.43316 57.68965 151 ft 33 kts 117°
2026-05-04 12:15 -20.43421 57.69182 142 ft 33 kts 117°
2026-05-04 12:15 -20.43525 57.69402 131 ft 34 kts 116°
2026-05-04 12:15 -20.43627 57.69615 117 ft 27 kts 116°
2026-05-04 12:16 -20.43681 57.69727 109 ft 11 kts 119°
2026-05-04 12:16 -20.43717 57.69771 104 ft 8 kts 169°
2026-05-04 12:16 -20.43751 57.69761 103 ft 5 kts 206°
2026-05-04 12:16 -20.43790 57.69738 102 ft 6 kts 223°
2026-05-04 12:17 -20.43799 57.69713 103 ft 1 kts 282°
2026-05-04 12:17 -20.43799 57.69712 104 ft 1 kts 283°
2026-05-04 12:17 -20.43796 57.69703 104 ft 3 kts 298°
2026-05-04 12:17 -20.43777 57.69666 107 ft 9 kts 297°
2026-05-04 12:18 -20.43742 57.69593 113 ft 13 kts 296°
2026-05-04 12:18 -20.43697 57.69493 121 ft 17 kts 296°
2026-05-04 12:18 -20.43634 57.69364 130 ft 22 kts 298°
2026-05-04 12:18 -20.43556 57.69204 139 ft 27 kts 298°
2026-05-04 12:19 -20.43460 57.69011 149 ft 33 kts 297°
2026-05-04 12:19 -20.43342 57.68777 158 ft 38 kts 301°
2026-05-04 12:19 -20.43243 57.68555 166 ft 30 kts 294°
2026-05-04 12:19 -20.43153 57.68374 172 ft 26 kts 298°
2026-05-04 12:20 -20.43082 57.68225 177 ft 7 kts 295°
2026-05-04 12:20 -20.43081 57.68223 177 ft 0 kts 295°
2026-05-04 12:21 -20.43081 57.68222 177 ft 2 kts 295°
2026-05-04 12:21 -20.43038 57.68130 180 ft 26 kts 297°
2026-05-04 12:21 -20.42943 57.67940 185 ft 17 kts 296°
2026-05-04 12:21 -20.42949 57.67873 188 ft 0 kts 230°
2026-05-04 12:22 -20.42961 57.67857 192 ft 8 kts 227°
2026-05-04 12:22 -20.42975 57.67841 196 ft 0 kts 228°